Time,TemperatureF,DewpointF,PressureIn,WindDirection,WindDirectionDegrees,WindSpeedMPH,WindSpeedGustMPH,Humidity,HourlyPrecipIn,Conditions,Clouds,dailyrainin,SoftwareType,DateUTC
2013-05-15 00:02:00,73.0,58.0,29.64,SW,217,5.0,8.0,59,0.00,,,0.00,,2013-05-15 05:02:00,
2013-05-15 00:12:00,73.0,58.0,29.64,SW,217,5.0,8.0,59,0.00,,,0.00,,2013-05-15 05:12:00,
2013-05-15 00:22:00,74.0,58.0,29.64,WSW,256,7.0,14.0,57,0.00,,,0.00,,2013-05-15 05:22:00,
2013-05-15 00:32:00,75.0,58.0,29.64,WSW,252,7.0,14.0,56,0.00,,,0.00,,2013-05-15 05:32:00,
2013-05-15 00:42:00,75.0,58.0,29.64,WSW,252,7.0,14.0,56,0.00,,,0.00,,2013-05-15 05:42:00,
2013-05-15 00:52:00,75.0,57.0,29.64,WSW,250,9.0,14.0,54,0.00,,,0.00,,2013-05-15 05:52:00,
2013-05-15 01:02:00,76.0,57.0,29.64,SW,229,10.0,15.0,52,0.00,,,0.00,,2013-05-15 06:02:00,
2013-05-15 01:11:00,76.0,57.0,29.64,SW,229,10.0,15.0,52,0.00,,,0.00,,2013-05-15 06:11:00,
2013-05-15 01:21:00,76.0,57.0,29.64,West,261,10.0,17.0,51,0.00,,,0.00,,2013-05-15 06:21:00,
2013-05-15 01:32:00,77.0,56.0,29.64,WSW,250,12.0,19.0,48,0.00,,,0.00,,2013-05-15 06:32:00,
2013-05-15 01:42:00,77.0,56.0,29.64,WSW,250,12.0,19.0,48,0.00,,,0.00,,2013-05-15 06:42:00,
2013-05-15 01:52:00,78.0,56.0,29.65,SW,231,12.0,19.0,47,0.00,,,0.00,,2013-05-15 06:52:00,
2013-05-15 02:01:00,78.0,56.0,29.64,SW,233,12.0,21.0,47,0.00,,,0.00,,2013-05-15 07:01:00,
2013-05-15 02:11:00,78.0,56.0,29.64,SW,233,12.0,21.0,47,0.00,,,0.00,,2013-05-15 07:11:00,
2013-05-15 02:21:00,78.0,57.0,29.64,WSW,253,12.0,21.0,48,0.00,,,0.00,,2013-05-15 07:21:00,
2013-05-15 02:32:00,78.0,56.0,29.65,WSW,246,12.0,19.0,47,0.00,,,0.00,,2013-05-15 07:32:00,
2013-05-15 02:41:00,78.0,56.0,29.65,WSW,246,12.0,19.0,47,0.00,,,0.00,,2013-05-15 07:41:00,
2013-05-15 02:52:00,78.0,57.0,29.65,WSW,258,11.0,30.0,48,0.00,,,0.00,,2013-05-15 07:52:00,
2013-05-15 03:02:00,77.0,56.0,29.65,West,263,15.0,23.0,49,0.00,,,0.00,,2013-05-15 08:02:00,
2013-05-15 03:12:00,77.0,56.0,29.65,West,263,15.0,23.0,49,0.00,,,0.00,,2013-05-15 08:12:00,
2013-05-15 03:21:00,77.0,57.0,29.64,WSW,241,13.0,22.0,50,0.00,,,0.00,,2013-05-15 08:21:00,
2013-05-15 03:32:00,77.0,57.0,29.64,West,260,13.0,26.0,51,0.00,,,0.00,,2013-05-15 08:32:00,
2013-05-15 03:42:00,77.0,57.0,29.64,West,260,13.0,26.0,51,0.00,,,0.00,,2013-05-15 08:42:00,
2013-05-15 03:53:00,76.0,57.0,29.65,WSW,257,12.0,22.0,52,0.00,,,0.00,,2013-05-15 08:53:00,
2013-05-15 04:01:00,76.0,58.0,29.65,WSW,254,12.0,23.0,53,0.00,,,0.00,,2013-05-15 09:01:00,
2013-05-15 04:11:00,76.0,58.0,29.65,WSW,254,12.0,23.0,53,0.00,,,0.00,,2013-05-15 09:11:00,
2013-05-15 04:21:00,75.0,57.0,29.65,WSW,238,12.0,22.0,54,0.00,,,0.00,,2013-05-15 09:21:00,
2013-05-15 04:33:00,75.0,58.0,29.66,WSW,238,11.0,23.0,55,0.00,,,0.00,,2013-05-15 09:33:00,
2013-05-15 04:42:00,75.0,58.0,29.66,WSW,238,11.0,23.0,55,0.00,,,0.00,,2013-05-15 09:42:00,
2013-05-15 04:53:00,75.0,58.0,29.67,WSW,244,10.0,18.0,55,0.00,,,0.00,,2013-05-15 09:53:00,
2013-05-15 05:02:00,75.0,58.0,29.67,West,276,10.0,17.0,56,0.00,,,0.00,,2013-05-15 10:02:00,
2013-05-15 05:12:00,75.0,58.0,29.67,West,276,10.0,17.0,56,0.00,,,0.00,,2013-05-15 10:12:00,
2013-05-15 05:22:00,74.0,57.0,29.68,WSW,251,12.0,20.0,56,0.00,,,0.00,,2013-05-15 10:22:00,
2013-05-15 05:32:00,74.0,57.0,29.69,West,271,12.0,20.0,56,0.00,,,0.00,,2013-05-15 10:32:00,
2013-05-15 05:42:00,74.0,57.0,29.69,West,271,12.0,20.0,56,0.00,,,0.00,,2013-05-15 10:42:00,
2013-05-15 05:52:00,73.0,57.0,29.70,WSW,239,11.0,18.0,57,0.00,,,0.00,,2013-05-15 10:52:00,
2013-05-15 06:08:00,72.0,56.0,29.71,West,262,11.0,18.0,58,0.00,,,0.00,,2013-05-15 11:08:00,
2013-05-15 06:17:00,72.0,56.0,29.71,West,262,11.0,18.0,58,0.00,,,0.00,,2013-05-15 11:17:00,
2013-05-15 06:26:00,72.0,57.0,29.71,West,275,9.0,15.0,59,0.00,,,0.00,,2013-05-15 11:26:00,
2013-05-15 06:35:00,71.0,57.0,29.72,WSW,241,8.0,13.0,61,0.00,,,0.00,,2013-05-15 11:35:00,
2013-05-15 06:47:00,71.0,57.0,29.72,WSW,241,8.0,13.0,61,0.00,,,0.00,,2013-05-15 11:47:00,
2013-05-15 07:06:00,71.0,58.0,29.73,West,277,7.0,12.0,63,0.00,,,0.00,,2013-05-15 12:06:00,
2013-05-15 07:14:00,71.0,58.0,29.73,West,277,7.0,12.0,63,0.00,,,0.00,,2013-05-15 12:14:00,
2013-05-15 07:57:00,71.0,60.0,29.74,West,263,7.0,12.0,68,0.00,,,0.00,,2013-05-15 12:57:00,
2013-05-15 08:07:00,71.0,60.0,29.73,West,279,5.0,12.0,69,0.00,,,0.00,,2013-05-15 13:07:00,
2013-05-15 08:16:00,71.0,60.0,29.73,West,279,5.0,12.0,69,0.00,,,0.00,,2013-05-15 13:16:00,
2013-05-15 08:25:00,70.0,60.0,29.75,West,281,7.0,12.0,71,0.00,,,0.00,,2013-05-15 13:25:00,
2013-05-15 08:35:00,69.0,61.0,29.75,West,265,6.0,11.0,75,0.00,,,0.00,,2013-05-15 13:35:00,
2013-05-15 08:46:00,69.0,61.0,29.75,West,265,6.0,11.0,75,0.00,,,0.00,,2013-05-15 13:46:00,
2013-05-15 08:58:00,68.0,61.0,29.77,West,259,7.0,14.0,79,0.05,,,0.05,,2013-05-15 13:58:00,
2013-05-15 09:05:00,67.0,60.0,29.76,WSW,243,5.0,12.0,78,0.06,,,0.06,,2013-05-15 14:05:00,
2013-05-15 09:25:00,67.0,61.0,29.76,West,277,7.0,12.0,80,0.06,,,0.06,,2013-05-15 14:25:00,
2013-05-15 09:36:00,68.0,62.0,29.76,West,263,7.0,10.0,81,0.05,,,0.06,,2013-05-15 14:36:00,
2013-05-15 09:59:00,68.0,62.0,29.76,WSW,248,5.0,10.0,81,0.01,,,0.06,,2013-05-15 14:59:00,
2013-05-15 10:08:00,69.0,63.0,29.75,WSW,250,4.0,9.0,82,0.00,,,0.06,,2013-05-15 15:08:00,
2013-05-15 10:15:00,69.0,63.0,29.75,WSW,250,4.0,9.0,82,0.00,,,0.06,,2013-05-15 15:15:00,
2013-05-15 10:27:00,72.0,65.0,29.76,West,260,7.0,11.0,79,0.00,,,0.06,,2013-05-15 15:27:00,
2013-05-15 10:36:00,73.0,63.0,29.77,WSW,243,11.0,19.0,72,0.00,,,0.06,,2013-05-15 15:36:00,
2013-05-15 10:47:00,73.0,63.0,29.77,WSW,243,11.0,19.0,72,0.00,,,0.06,,2013-05-15 15:47:00,
2013-05-15 11:00:00,73.0,64.0,29.78,West,273,8.0,14.0,73,0.00,,,0.06,,2013-05-15 16:00:00,
2013-05-15 11:20:00,75.0,63.0,29.78,WSW,257,7.0,13.0,67,0.00,,,0.06,,2013-05-15 16:20:00,
2013-05-15 11:27:00,75.0,62.0,29.78,WNW,297,7.0,12.0,63,0.00,,,0.06,,2013-05-15 16:27:00,
2013-05-15 11:34:00,76.0,61.0,29.78,NW,307,5.0,10.0,59,0.00,,,0.06,,2013-05-15 16:34:00,
2013-05-15 11:47:00,76.0,61.0,29.78,NW,307,5.0,10.0,59,0.00,,,0.06,,2013-05-15 16:47:00,
2013-05-15 11:58:00,76.0,57.0,29.78,West,280,5.0,9.0,51,0.00,,,0.06,,2013-05-15 16:58:00,
2013-05-15 12:08:00,77.0,56.0,29.77,WNW,284,7.0,11.0,48,0.00,,,0.06,,2013-05-15 17:08:00,
2013-05-15 12:17:00,77.0,56.0,29.77,WNW,284,7.0,11.0,48,0.00,,,0.06,,2013-05-15 17:17:00,
2013-05-15 12:26:00,78.0,57.0,29.77,NW,304,4.0,9.0,49,0.00,,,0.06,,2013-05-15 17:26:00,
2013-05-15 12:35:00,79.0,57.0,29.77,West,271,5.0,8.0,47,0.00,,,0.06,,2013-05-15 17:35:00,
2013-05-15 12:45:00,79.0,57.0,29.77,West,271,5.0,8.0,47,0.00,,,0.06,,2013-05-15 17:45:00,
2013-05-15 12:55:00,79.0,54.0,29.76,WSW,257,3.0,7.0,42,0.00,,,0.06,,2013-05-15 17:55:00,
2013-05-15 13:04:00,79.0,55.0,29.77,SW,215,6.0,10.0,43,0.00,,,0.06,,2013-05-15 18:04:00,
2013-05-15 13:14:00,79.0,55.0,29.77,SW,215,6.0,10.0,43,0.00,,,0.06,,2013-05-15 18:14:00,
2013-05-15 13:26:00,78.0,52.0,29.77,WSW,241,7.0,13.0,41,0.00,,,0.06,,2013-05-15 18:26:00,
2013-05-15 13:35:00,78.0,52.0,29.78,WSW,255,7.0,12.0,41,0.00,,,0.06,,2013-05-15 18:35:00,
2013-05-15 13:46:00,78.0,52.0,29.78,WSW,255,7.0,12.0,41,0.00,,,0.06,,2013-05-15 18:46:00,
2013-05-15 13:54:00,78.0,54.0,29.77,West,278,4.0,12.0,43,0.00,,,0.06,,2013-05-15 18:54:00,
2013-05-15 14:07:00,78.0,54.0,29.77,West,281,4.0,6.0,44,0.00,,,0.06,,2013-05-15 19:07:00,
2013-05-15 14:14:00,78.0,54.0,29.77,West,281,4.0,6.0,44,0.00,,,0.06,,2013-05-15 19:14:00,
2013-05-15 14:27:00,80.0,54.0,29.76,WSW,250,4.0,8.0,41,0.00,,,0.06,,2013-05-15 19:27:00,
2013-05-15 14:44:00,80.0,54.0,29.76,WSW,250,4.0,8.0,41,0.00,,,0.06,,2013-05-15 19:44:00,
2013-05-15 14:54:00,80.0,55.0,29.77,West,264,6.0,11.0,42,0.00,,,0.06,,2013-05-15 19:54:00,
2013-05-15 15:06:00,79.0,55.0,29.76,West,261,4.0,11.0,43,0.00,,,0.06,,2013-05-15 20:06:00,
2013-05-15 15:27:00,80.0,55.0,29.76,SW,217,5.0,11.0,43,0.00,,,0.06,,2013-05-15 20:27:00,
2013-05-15 15:46:00,81.0,56.0,29.75,WSW,242,4.0,13.0,42,0.00,,,0.06,,2013-05-15 20:46:00,
2013-05-15 15:53:00,81.0,54.0,29.75,SW,229,5.0,11.0,40,0.00,,,0.06,,2013-05-15 20:53:00,
2013-05-15 16:07:00,79.0,57.0,29.74,WSW,237,6.0,12.0,47,0.00,,,0.06,,2013-05-15 21:07:00,
2013-05-15 16:19:00,79.0,57.0,29.74,WSW,237,6.0,12.0,47,0.00,,,0.06,,2013-05-15 21:19:00,
2013-05-15 16:39:00,81.0,56.0,29.73,SW,229,5.0,11.0,43,0.00,,,0.06,,2013-05-15 21:39:00,
2013-05-15 16:49:00,81.0,56.0,29.73,SW,229,5.0,11.0,43,0.00,,,0.06,,2013-05-15 21:49:00,
2013-05-15 16:56:00,81.0,54.0,29.73,WSW,256,4.0,10.0,40,0.00,,,0.06,,2013-05-15 21:56:00,
2013-05-15 17:17:00,81.0,55.0,29.73,West,263,4.0,10.0,41,0.00,,,0.06,,2013-05-15 22:17:00,
2013-05-15 17:28:00,82.0,55.0,29.73,West,261,5.0,10.0,39,0.00,,,0.06,,2013-05-15 22:28:00,
2013-05-15 17:39:00,82.0,53.0,29.74,West,269,6.0,14.0,37,0.00,,,0.06,,2013-05-15 22:39:00,
2013-05-15 17:48:00,82.0,53.0,29.74,West,269,6.0,14.0,37,0.00,,,0.06,,2013-05-15 22:48:00,
2013-05-15 17:54:00,82.0,52.0,29.74,West,269,7.0,14.0,36,0.00,,,0.06,,2013-05-15 22:54:00,
2013-05-15 18:07:00,81.0,53.0,29.73,West,265,5.0,12.0,38,0.00,,,0.06,,2013-05-15 23:07:00,
2013-05-15 18:15:00,81.0,53.0,29.73,West,265,5.0,12.0,38,0.00,,,0.06,,2013-05-15 23:15:00,
2013-05-15 18:27:00,81.0,53.0,29.73,West,261,5.0,9.0,38,0.00,,,0.06,,2013-05-15 23:27:00,
2013-05-15 18:38:00,81.0,52.0,29.73,WSW,254,5.0,8.0,36,0.00,,,0.06,,2013-05-15 23:38:00,
2013-05-15 18:48:00,81.0,52.0,29.73,WSW,254,5.0,8.0,36,0.00,,,0.06,,2013-05-15 23:48:00,
2013-05-15 18:54:00,80.0,52.0,29.73,WSW,247,4.0,8.0,38,0.00,,,0.06,,2013-05-15 23:54:00,
2013-05-15 19:05:00,80.0,51.0,29.74,West,278,5.0,8.0,37,0.00,,,0.06,,2013-05-16 00:05:00,
2013-05-15 19:25:00,80.0,53.0,29.75,West,270,3.0,8.0,39,0.00,,,0.06,,2013-05-16 00:25:00,
2013-05-15 19:35:00,80.0,53.0,29.75,West,274,3.0,7.0,40,0.00,,,0.06,,2013-05-16 00:35:00,
2013-05-15 19:54:00,79.0,53.0,29.74,WSW,240,3.0,6.0,40,0.00,,,0.06,,2013-05-16 00:54:00,
2013-05-15 20:06:00,78.0,54.0,29.73,WSW,244,2.0,6.0,43,0.00,,,0.06,,2013-05-16 01:06:00,
2013-05-15 20:16:00,78.0,54.0,29.73,WSW,244,2.0,6.0,43,0.00,,,0.06,,2013-05-16 01:16:00,
2013-05-15 20:28:00,76.0,52.0,29.72,WSW,244,1.0,3.0,44,0.00,,,0.06,,2013-05-16 01:28:00,
2013-05-15 20:36:00,75.0,52.0,29.74,WSW,239,2.0,4.0,45,0.00,,,0.06,,2013-05-16 01:36:00,
2013-05-15 20:48:00,75.0,52.0,29.74,WSW,239,2.0,4.0,45,0.00,,,0.06,,2013-05-16 01:48:00,
2013-05-15 20:56:00,74.0,52.0,29.75,West,272,3.0,5.0,46,0.00,,,0.06,,2013-05-16 01:56:00,
2013-05-15 21:07:00,73.0,52.0,29.75,West,270,2.0,5.0,47,0.00,,,0.06,,2013-05-16 02:07:00,
2013-05-15 21:16:00,73.0,52.0,29.75,West,270,2.0,5.0,47,0.00,,,0.06,,2013-05-16 02:16:00,
2013-05-15 21:26:00,73.0,52.0,29.75,West,268,2.0,5.0,48,0.00,,,0.06,,2013-05-16 02:26:00,
2013-05-15 21:46:00,73.0,52.0,29.76,West,272,2.0,5.0,47,0.00,,,0.06,,2013-05-16 02:46:00,
2013-05-15 21:53:00,73.0,52.0,29.76,West,272,2.0,5.0,47,0.00,,,0.06,,2013-05-16 02:53:00,
2013-05-15 22:07:00,71.0,52.0,29.76,West,265,3.0,6.0,51,0.00,,,0.06,,2013-05-16 03:07:00,
2013-05-15 22:16:00,71.0,52.0,29.76,West,265,3.0,6.0,51,0.00,,,0.06,,2013-05-16 03:16:00,
2013-05-15 22:25:00,69.0,52.0,29.77,West,278,3.0,5.0,55,0.00,,,0.06,,2013-05-16 03:25:00,
2013-05-15 22:36:00,69.0,53.0,29.77,WNW,285,2.0,4.0,56,0.00,,,0.06,,2013-05-16 03:36:00,
2013-05-15 22:45:00,69.0,53.0,29.77,WNW,285,2.0,4.0,56,0.00,,,0.06,,2013-05-16 03:45:00,
2013-05-15 22:54:00,67.0,51.0,29.77,NW,323,2.0,5.0,57,0.00,,,0.06,,2013-05-16 03:54:00,
2013-05-15 23:02:00,66.0,51.0,29.77,NW,322,1.0,3.0,58,0.00,,,0.06,,2013-05-16 04:02:00,
2013-05-15 23:12:00,66.0,51.0,29.77,NW,322,1.0,3.0,58,0.00,,,0.06,,2013-05-16 04:12:00,
2013-05-15 23:23:00,66.0,50.0,29.77,WNW,298,0.0,3.0,56,0.00,,,0.06,,2013-05-16 04:23:00,
2013-05-15 23:33:00,65.0,49.0,29.77,NW,312,0.0,1.0,57,0.00,,,0.06,,2013-05-16 04:33:00,
2013-05-15 23:42:00,65.0,49.0,29.77,NW,312,0.0,1.0,57,0.00,,,0.06,,2013-05-16 04:42:00,
2013-05-15 23:53:00,64.0,49.0,29.77,NW,311,0.0,1.0,59,0.00,,,0.06,,2013-05-16 04:53:00,